Flag for U.S.A. Weather past 2 weeks in Mountain View, California, U.S.A.

Now
63 °F

Clear.


Feels Like: 63 °F
Forecast: 64 / 81 °F
Wind: No wind

Location: Moffett Field

Current Time: Jul 3, 2015 at 3:48:15 AM

Latest Report: Jul 3, 2015 at 2:56 AM


Visibility: 10 mi

Pressure: 29.93 "Hg

Humidity: 90%

Dew point: 60 °F

Location of Mountain ViewLocation

Historic Weather in Mountain View — Graph

°F

Mountain View temperature yesterday

Maximum temperature yesterday: 77 °F (at 12:56 PM)
Minimum temperature yesterday: 64 °F (at 5:56 AM)
Average temperature yesterday: 69 °F

Past Weeks' High & Low Weather Summary

 TemperatureHumidityPressure
High89 °F (Jun 30, 3:56 PM)90% (Jun 21, 12:56 AM)30.08 "Hg (Jun 21, 12:56 AM)
Low54 °F (Jun 19, 4:56 AM)31% (Jun 30, 3:56 PM)29.81 "Hg (Jun 30, 5:56 PM)
Average67 °F69%29.96 "Hg
* Reported Jun 18 1:56 AM — Jul 3 1:56 AM, Mountain View, Weather by CustomWeather, © 2015

Note: Actual official high and low records may vary slightly from our data, if they occured in-between our weather recording intervals... More about our weather records

Advertising

Mountain View weather history for previous 24 hours

 ConditionsComfort  
Time TempWeatherWind HumidityBarometerVisibility
1:56 AM
Fri, Jul 3
63 °FPassing clouds.3 mph87%29.94 "Hg10 mi
12:56 AM64 °FPassing clouds.5 mph87%29.96 "Hg10 mi
11:56 PM
Thu, Jul 2
64 °FClear.3 mph84%29.97 "Hg10 mi
10:56 PM64 °FClear.5 mph87%29.96 "Hg10 mi
9:56 PM64 °FClear.6 mph84%29.96 "Hg10 mi
8:56 PM65 °FSunny.10 mph85%29.95 "Hg10 mi
7:56 PM67 °FSunny.10 mph81%29.94 "Hg10 mi
6:56 PM69 °FSunny.10 mph76%29.93 "Hg10 mi
5:56 PM70 °FSunny.8 mph73%29.92 "Hg10 mi
4:56 PM73 °FSunny.13 mph66%29.92 "Hg10 mi
3:56 PM75 °FSunny.14 mph62%29.92 "Hg10 mi
2:56 PM77 °FSunny.12 mph58%29.95 "Hg10 mi
1:56 PM75 °FSunny.9 mph60%29.96 "Hg10 mi
12:56 PM77 °FSunny.7 mph54%29.96 "Hg10 mi
11:56 AM75 °FSunny.8 mph62%29.96 "Hg10 mi
10:56 AM73 °FSunny.7 mph66%29.97 "Hg10 mi
9:56 AM70 °FSunny.5 mph71%29.99 "Hg10 mi
8:56 AM65 °FSunny.6 mph81%29.98 "Hg10 mi
7:56 AM65 °FSunny.5 mph85%29.97 "Hg10 mi
6:56 AM64 °FSunny.No wind87%29.95 "Hg10 mi
5:56 AM64 °FClear.6 mph90%29.94 "Hg10 mi
4:56 AM66 °FClear.7 mph81%29.91 "Hg10 mi
3:56 AM67 °FClear.5 mph81%29.91 "Hg10 mi
Weather by CustomWeather, © 2015

See weather overviewHow to use our weather pages